CZ-6A DEB, 61160

Orbit data source: Space-Track

CZ-6A DEB, 61160 is space debris in LEO originally from a launch on Tue, 06 Aug 2024 UTC launched from the Taiyaun Space Center, China (TSC). Debris objects in space refer to the collection of defunct objects orbiting the Earth. Examples of debris include non-operational satellites, rocket bodies, and fragments generated from explosions, collisions, or faulty payload assembly.

Loading next visibility...
Identifier
61160, 2024-140RE
Orbit
LEO
Country
Flag of CNCN / PRC
Related business
Manufacturer
SAST
Mission
Spacecraft
Bus & Motor
Unknown
Mass
Unknown
Launch date (UTC)
2024-08-06 (2 years ago)
Launch vehicle
Unknown
Launch site
Taiyaun Space Center, China (TSC)
Object type
Payload
Rocket body
Debris
Shape & HBR
Unknown shape, 1.1 m
Radar Cross Section
Medium (>0.1 m² and <1 m²)

Expand to show TLE details & history
Last TLE update: 2 weeks ago

TLE from 2 weeks ago
0 CZ-6A DEB
1 61160U 24140RE  26159.58045235  .00005112  00000-0  20518-2 0  9997
2 61160  88.9779 273.6088 0053615 229.8414 129.8079 14.27318433 93237
Epoch: 2026-06-08T13:55Z
TLE epoch observation values (Epoch: 2026-06-08T13:55:51.083Z)
Latitude
0.00003°
Longitude
167.68069°
Altitude
828.54 km
Speed
7.426 km/s
True Right ascension
18h 14m 26s
True Declination
0° 00' 00"
Sunlit
Object was in full shadow at epoch
Visualization orbit readout
Latitude
Unknown
Longitude
Unknown
Altitude
Unknown
Speed
Unknown
Apparent Right ascension
Unknown
Apparent Declination
Unknown
Sunlit
N/A
Visualization observer readout
Local Sidereal Time
08:42:30
Azimuth
Unknown
Elevation
Unknown
Doppler factor
Unknown
Orbital elements
Apogee altitude
836.122 km
Perigee altitude
759.176 km
Semi-major axis
7,175.786 km
Eccentricity
0.00536
Inclination
88.9779°
RAAN
273.6088°
Arg. of periapsis
229.8414°
True anomaly
130.27784°
Mean anomaly
129.8079°
Eccentric anomaly
130.04307°
Mean motion
3.57058 °/min
Orbital period
100.82 mins
BSTAR
0.0020518
Loading maneuver chart data...
Computing Atmospheric mass density...
Loading historical data...
Loading historical data...
Loading historical data...
Loading historical data...
Loading historical data...
Loading historical data...
Loading historical data...

Documentation

Showing up to 5 results
|